Regional Weather Roundup
Issued by NWS Sterling, VA

Home | Current Version | Previous Version | Text Only | Print | Product List | Glossary Off
Versions: 1 2 3 4 5 6 7 8 9 10 11 12 13 14 15 16 17 18 19 20 21 22 23 24 25 26 27 28 29 30 31 32 33 34 35 36 37 38 39 40 41 42 43 44 45 46 47 48 49 50

000
ASUS41 KLWX 201610
RWRLWX

REGIONAL WEATHER ROUNDUP
NATIONAL WEATHER SERVICE BALTIMORE MD/WASHINGTON DC
1200 PM EDT MON APR 20 2015

Note: "FAIR" indicates few or no clouds below 12,000 feet
with no significant weather and/or obstructions to visibility.
 TC=TEMPERATURE CELSIUS

 * =Non NWS site. Station does not report precipitation (e.g. rain,
    snow, etc.), thunder, or fog.

DCZ001-MDZ009-015-VAZ040>042-051-053>054-201700-
WASHINGTON METRO

CITY           SKY/WX    TMP DP  RH WIND       PRES   REMARKS
WASHINGTON NAT PTSUNNY   74  62  66 SW9       29.66F
DULLES         MOSUNNY   70  61  73 S9        29.64F
FT BELVOIR     PTSUNNY   73  61  65 SW10      29.65F
QUANTICO       PTSUNNY   74  60  61 NW7       29.65F
COLLEGE PARK*  MOSUNNY   72  61  68 S5        29.65F
LEESBURG*      MOSUNNY   70  63  78 S8        29.65F
MANASSAS*      MOSUNNY   72  63  73 SW8       29.65F
GAITHERSBURG*  SUNNY     70  61  73 S8        29.69F

$$

MDZ006>007-011-014-201700-
BALTIMORE METRO

CITY           SKY/WX    TMP DP  RH WIND       PRES   REMARKS
BWI AIRPORT    MOSUNNY   72  61  68 SW10G16   29.64F
MD SCIENCE CTR   N/A     73  60  63 MISG      29.67F
MARTIN STATE   PTSUNNY   70  66  88 SE8       29.67F
ANNAPOLIS      PTSUNNY   64  59  83 E10       29.65F
FORT MEADE*    MOSUNNY   72  61  68 S8G16     29.67F

$$

MDZ012-015-019>023-201700-
MARYLAND EASTERN SHORE

CITY           SKY/WX    TMP DP  RH WIND       PRES   REMARKS
OCEAN CITY     CLOUDY    61  59  93 S8        29.70F
SALISBURY      CLOUDY    70  63  78 SW8       29.69F
BAY BRIDGE AP*   N/A    N/A N/A N/A S9        29.66S
CAMBRIDGE*     CLOUDY    72  64  78 S7        29.68S
EASTON*        MOSUNNY   73  66  78 SW12G21   29.71F

$$

MDZ017>025-201700-
SOUTHERN MARYLAND

CITY           SKY/WX    TMP DP  RH WIND       PRES   REMARKS
PATUXENT RIVER PTSUNNY   74  64  71 W10G20    29.67S
ST INIGOES     MOSUNNY   73  64  73 SW12      29.67F
LEONARDTOWN*   MOSUNNY   72  61  68 SW9G16    29.69F

$$

MDZ003>005-201700-
NORTH CENTRAL MARYLAND

CITY           SKY/WX    TMP DP  RH WIND       PRES   REMARKS
FREDERICK*     MOSUNNY   70  55  60 SW8       29.67F
HAGERSTOWN APT PTSUNNY   59  53  80 SE6       29.64F
WESTMINSTER*   SUNNY     66  63  88 W5        29.66F

$$

MDZ501>502-201700-
WESTERN MARYLAND

CITY           SKY/WX    TMP DP  RH WIND       PRES   REMARKS
OAKLAND*       SUNNY     64  55  72 SW12      29.60F
CUMBERLAND*    CLOUDY    59  52  77 SE5       29.66F

$$

VAZ025>031-201700-
SHENANDOAH VALLEY

CITY           SKY/WX    TMP DP  RH WIND       PRES   REMARKS
WINCHESTER*    SUNNY     68  54  60 SE7       29.63F
FRONT ROYAL*   NOT AVBL
LURAY*         NOT AVBL
NEW MARKET*    FAIR      67  58  72 SW8       29.62F
STAUNTON*      PTSUNNY   70  56  61 SW12      29.66F
WAYNESBORO*    FAIR      69  57  65 SW8       29.66F

$$

WVZ021-048>050-054>055-201700-
EASTERN WEST VIRGINIA PANHANDLE

CITY           SKY/WX    TMP DP  RH WIND       PRES   REMARKS
MARTINSBURG    MOSUNNY   64  56  75 SE7       29.63F
PETERSBURG*    SUNNY     64  52  65 CALM      29.60F

$$

VAZ036>039-050-201700-
CENTRAL FOOTHILLS

CITY           SKY/WX    TMP DP  RH WIND       PRES   REMARKS
CHARLOTTESVILL MOSUNNY   72  59  63 S9        29.64F
CULPEPER*      MOSUNNY   75  59  57 S5        29.64F
ORANGE*        MOSUNNY   73  61  64 S7        29.66F
GORDONSVILLE*  NOT AVBL
WARRENTON*     FAIR      74  62  65 S7        29.64F

$$

VAZ055>057-201700-
NORTH AND CENTRAL PIEDMONT

CITY           SKY/WX    TMP DP  RH WIND       PRES   REMARKS
FREDERICKSBRG* MOSUNNY   77  61  57 S9        29.65F
STAFFORD*      PTSUNNY   74  58  57 S7        29.69F

$$

NCZ024-NYZ072-PAZ021-071-VAZ022-071-201700-
OTHER REGIONAL OBSERVATIONS

CITY           SKY/WX    TMP DP  RH WIND       PRES   REMARKS
NEW YORK CITY  LGT RAIN  56  54  93 VRB7G22   29.76F FOG
PHILADELPHIA   CLOUDY    62  60  93 CALM      29.67F FOG
PITTSBURGH     LGT RAIN  67  55  65 S13G24    29.49F
ROANOKE        PTSUNNY   71  63  75 VRB3      29.68F
RICHMOND       CLOUDY    73  64  73 SW10      29.69F
RALEIGH        PTSUNNY   74  63  68 W15G25    29.76R

$$

ANZ530>537-201700-
MARINE OBSERVATIONS

STATION/POSITION TIME  TEMP    WIND        PRES
                       AIR SEA DIR/SP/G
                 (UTC) (F)     (DEG/KT/KT) (MB)
THOMAS PT LIGHT  1600   62 55  160/ 11/ 11 1004.8F
BALT KEY BRIDGE  1500   64      80/  5/  6 1004.3F
COVE POINT       1500   69     260/ 10/ 13 1004.7F
LEWISETTA        1500   71 63              1005.0R
SOLOMONS ISLAND  1500      57                N/A
PINEY POINT      1500          260/  5/  7   N/A

$$




USA.gov is the U.S. government's official web portal to all federal, state and local government web resources and services.